{"data":{"norad_id":64001,"intl_designator":"2025-101H","name":"STARLINK-33927","alt_names":[],"object_type":"PAYLOAD","status":"ACTIVE","operator":null,"country":"US","launch_date":"2025-05-14","launch_site_code":"AFETR","launch_vehicle":null,"mission":null,"orbit_class":"UNKNOWN","rcs_meters":null,"size_class":null,"mass_kg":null,"dimensions":null,"purposes":["comms"],"wikipedia_slug":null,"has_3d_model":false,"image_url":null,"decayed_at":null,"tle_current":{"epoch":"2026-05-25T02:00:44.259840Z","epoch_age_seconds":71108,"freshness":"FRESH","line1":"1 64001U 25101H   26145.08384560  .00010567  00000+0  39290-3 0  9996","line2":"2 64001  42.9967 286.9722 0000101  71.1348 288.9514 15.27583768 58734","mean_motion":15.27583768,"eccentricity":1.01e-5,"inclination_deg":42.9967,"raan_deg":286.9722,"arg_perigee_deg":71.1348,"mean_anomaly_deg":288.9514,"bstar":0.0003929,"rev_number":5873,"period_min":94.266516191471,"perigee_km":482.9685154497,"apogee_km":483.10711118093,"semimajor_km":6861.1748133153,"source":"CELESTRAK","updated_at":"2026-05-25T13:38:20.218825Z"}}}